Regional Weather Roundup
Issued by NWS

Home | Current Version | Previous Version | Text Only | Print | Product List | Glossary On
Versions: 1 2 3 4 5 6 7 8 9 10 11 12 13 14 15 16 17 18 19 20 21 22 23 24 25 26 27 28 29 30 31 32 33 34 35 36 37 38 39 40 41 42 43 44 45 46 47 48 49 50
000
ASUS43 KLSX 212259
RWRMO

WEATHER SUMMARY FOR MISSOURI
NATIONAL WEATHER SERVICE SPRINGFIELD MO
600 PM CDT THU MAY 21 2015

NOTE: "FAIR" INDICATES FEW OR NO CLOUDS BELOW 12,000 FEET WITH NO
       SIGNIFICANT WEATHER AND/OR OBSTRUCTIONS TO VISIBILITY.
       CURRENT SKY AND/OR WEATHER CONDITIONS ARE NOT AVAILABLE FOR
       CHILLICOTHE AND FARMINGTON.

MOZ001>031-035>038-043-044-053-054-220000-
...NORTHERN AND WESTERN MISSOURI...

CITY           SKY/WX    TMP DP  RH WIND       PRES   REMARKS
KANSAS CTY INT MOSUNNY   67  44  43 VRB5      30.21F
KANSAS C DTWN  SUNNY     68  43  40 W3        30.20F
LEE`S SUMMIT   SUNNY     67  43  41 CALM      30.21F
ST JOSEPH      SUNNY     70  41  34 NW8       30.19F
KIRKSVILLE     SUNNY     70  47  43 W10       30.14F

$$
MOZ066>068-077>081-088>096-101>105-220000-
...SOUTHWEST MISSOURI...

CITY           SKY/WX    TMP DP  RH WIND       PRES   REMARKS
SPRINGFIELD    SUNNY     64  43  46 N7        30.20F
JOPLIN         MOSUNNY   64  46  52 N6        30.22F

$$
MOZ032>034-039>042-045>050-055>058-069>072-220000-
...CENTRAL MISSOURI...

CITY           SKY/WX    TMP DP  RH WIND       PRES   REMARKS
COLUMBIA       SUNNY     66  42  41 NW9       30.19S
JEFFERSON CITY SUNNY     67  39  35 W9        30.18F
ROLLA          SUNNY     63  42  46 NW8       30.18F
SEDALIA        SUNNY     66  44  45 W7        30.21F
OSAGE BEACH    SUNNY     64  37  36 NW3       30.21S

$$
MOZ051-052-059>065-220000-
...EAST CENTRAL MISSOURI...

CITY           SKY/WX    TMP DP  RH WIND       PRES   REMARKS
ST LOUIS INTL  MOSUNNY   66  41  40 W9        30.17F
SPIRIT OF STL  MOSUNNY   65  42  43 NW5       30.17F
ST CHARLES     SUNNY     66  41  40 W9        30.16F

$$
MOZ072>076-082>087-097>100-106>115-220000-
...SOUTH CENTRAL AND SOUTHEAST MISSOURI...

CITY           SKY/WX    TMP DP  RH WIND       PRES   REMARKS
CAPE GIRARDEAU MOSUNNY   60  45  57 N13       30.18F
FARMINGTON     MOSUNNY   59  39  47 CALM      30.23S
POPLAR BLUFF   LGT RAIN  60  44  55 N9        30.19F
WEST PLAINS    MOSUNNY   62  42  47 N5        30.20F

$$



USA.gov is the U.S. government's official web portal to all federal, state and local government web resources and services.